N7TUG-8 Weather Reports


time (UTC)temp
C
wind
direction
speed
KPH
gust
KPH
rain 1hr
cm
rain 24hr
cm
rain mn
cm
humidity
%
barometer
mb
20260504001326 24 309 9.7 16.1 0.00 0.00 0.00 53 1009.3
20260504001048 24 309 9.7 16.1 0.00 0.00 0.00 53 1009.3
20260503235821 24 305 6.4 14.5 0.00 0.00 0.00 53 1009.5
20260503235722 24 305 6.4 14.5 0.00 0.00 0.00 53 1009.5
20260503234431 24 332 4.8 19.3 0.00 0.00 0.00 54 1009.6
20260503232911 24 324 8.0 14.5 0.00 0.00 0.00 54 1009.8
20260503231542 24 334 4.8 12.9 0.00 0.00 0.00 54 1009.9
20260503231331 24 316 8.0 12.9 0.00 0.00 0.00 53 1010.1
20260503230332 24 328 6.4 14.5 0.00 0.00 0.00 54 1010.2
20260503225906 24 323 8.0 14.5 0.00 0.00 0.00 54 1010.2
20260503224401 23 333 9.7 19.3 0.00 0.00 0.00 54 1010.6
20260503223627 23 316 9.7 19.3 0.00 0.00 0.00 54 1010.7
20260503223026 23 328 11.3 19.3 0.00 0.00 0.00 55 1010.8
20260503221731 23 331 12.9 20.9 0.00 0.00 0.00 55 1010.9
20260503220146 23 340 12.9 20.9 0.00 0.00 0.00 54 1011.1
20260503214602 22 315 12.9 20.9 0.00 0.00 0.00 59 1011.2
20260503214312 22 325 12.9 20.9 0.00 0.00 0.00 59 1011.2
20260503213052 22 316 12.9 19.3 0.00 0.00 0.00 60 1011.3
20260503212922 21 327 12.9 19.3 0.00 0.00 0.00 61 1011.3
20260503211746 22 315 14.5 19.3 0.00 0.00 0.00 59 1011.4
20260503211627 22 315 14.5 19.3 0.00 0.00 0.00 59 1011.4
20260503210411 22 336 9.7 19.3 0.00 0.00 0.00 56 1011.4
20260503205126 22 334 12.9 20.9 0.00 0.00 0.00 57 1011.6
20260503203546 22 332 12.9 20.9 0.00 0.00 0.00 57 1011.8
20260503203512 22 329 12.9 20.9 0.00 0.00 0.00 58 1011.8
20260503202207 21 332 12.9 20.9 0.00 0.00 0.00 58 1012.0
20260503201951 21 338 12.9 20.9 0.00 0.00 0.00 58 1012.0
20260503201002 22 320 11.3 19.3 0.00 0.00 0.00 57 1012.1
20260503200421 22 336 11.3 24.1 0.00 0.00 0.00 59 1012.3
20260503194906 22 331 9.7 16.1 0.00 0.00 0.00 59 1012.4
20260503194237 22 314 11.3 16.1 0.00 0.00 0.00 60 1012.5
20260503193431 22 325 9.7 19.3 0.00 0.00 0.00 59 1012.6
20260503192812 22 331 11.3 19.3 0.00 0.00 0.00 60 1012.7
20260503192106 21 337 12.9 19.3 0.00 0.00 0.00 60 1012.7
20260503191352 21 332 9.7 16.1 0.00 0.00 0.00 62 1012.8
20260503190656 21 331 9.7 17.7 0.00 0.00 0.00 63 1012.9
20260503185206 21 307 8.0 16.1 0.00 0.00 0.00 64 1013.0
20260503183651 20 318 9.7 16.1 0.00 0.00 0.00 65 1013.0
20260503182231 20 281 6.4 14.5 0.00 0.00 0.00 65 1013.3
20260503180851 20 277 6.4 14.5 0.00 0.00 0.00 66 1013.3
20260503175501 19 276 8.0 14.5 0.00 0.00 0.00 68 1013.4
20260503174026 19 286 8.0 17.7 0.00 0.00 0.00 68 1013.4
20260503172728 20 317 8.0 19.3 0.00 0.00 0.00 67 1013.5
20260503171457 19 299 8.0 17.7 0.00 0.00 0.00 69 1013.6
20260503171156 19 299 8.0 17.7 0.00 0.00 0.00 69 1013.6
20260503131357 12 337 3.2 6.4 0.00 0.00 0.00 81 1013.5
20260503130111 12 9 1.6 4.8 0.00 0.00 0.00 80 1013.5
20260503110711 13 285 1.6 3.2 0.00 0.00 0.00 79 1013.8
20260503110217 13 300 1.6 3.2 0.00 0.00 0.00 78 1013.9
20260503090126 14 292 3.2 4.8 0.00 0.00 0.00 73 1013.9
20260503080652 15 264 1.6 3.2 0.00 0.00 0.00 72 1013.8
20260503080551 15 264 1.6 3.2 0.00 0.00 0.00 72 1013.8
20260503072607 15 314 1.6 3.2 0.00 0.00 0.00 70 1013.7
20260503072156 15 280 1.6 3.2 0.00 0.00 0.00 70 1013.7
20260503070736 16 251 1.6 3.2 0.00 0.00 0.00 70 1013.7
20260503053857 17 247 1.6 1.6 0.00 0.00 0.00 66 1013.5
20260503053626 17 247 1.6 1.6 0.00 0.00 0.00 66 1013.5
20260503052402 17 245 0.0 3.2 0.00 0.00 0.00 66 1013.6
20260503052206 17 245 0.0 3.2 0.00 0.00 0.00 66 1013.6
20260503050841 17 356 0.0 1.6 0.00 0.00 0.00 65 1013.5
20260503045712 17 163 0.0 3.2 0.00 0.00 0.00 64 1013.5
20260503045316 18 227 1.6 3.2 0.00 0.00 0.00 64 1013.4
20260503044001 18 227 1.6 3.2 0.00 0.00 0.00 63 1013.2
20260503042922 19 227 1.6 4.8 0.00 0.00 0.00 62 1013.1
20260503042446 19 199 1.6 4.8 0.00 0.00 0.00 61 1013.0
20260503041437 20 259 1.6 8.0 0.00 0.00 0.00 59 1012.9
20260503041041 20 259 1.6 8.0 0.00 0.00 0.00 59 1012.9
20260503040537 20 318 4.8 8.0 0.00 0.00 0.00 59 1012.7
20260503040219 20 318 4.8 8.0 0.00 0.00 0.00 59 1012.7
20260503035526 20 330 3.2 8.0 0.00 0.00 0.00 59 1012.6
20260503034126 20 308 3.2 6.4 0.00 0.00 0.00 60 1012.6
20260503033527 19 328 3.2 8.0 0.00 0.00 0.00 61 1012.6
20260503032611 19 317 4.8 11.3 0.00 0.00 0.00 62 1012.5
20260503031151 19 313 6.4 11.3 0.00 0.00 0.00 62 1012.4
20260503031102 19 313 6.4 11.3 0.00 0.00 0.00 62 1012.4
20260503025826 20 308 6.4 11.3 0.00 0.00 0.00 61 1012.3
20260503024241 20 305 6.4 14.5 0.00 0.00 0.00 61 1012.3
20260503023232 20 298 9.7 14.5 0.00 0.00 0.00 61 1012.3
20260503022711 20 302 6.4 12.9 0.00 0.00 0.00 60 1012.3
20260503021226 21 304 6.4 14.5 0.00 0.00 0.00 60 1012.3
20260503020437 21 306 8.0 17.7 0.00 0.00 0.00 61 1012.3
20260503015636 21 301 9.7 19.3 0.00 0.00 0.00 61 1012.3
20260503015232 21 306 8.0 19.3 0.00 0.00 0.00 60 1012.3
20260503014251 21 316 11.3 20.9 0.00 0.00 0.00 61 1012.4
20260503013737 21 316 9.7 20.9 0.00 0.00 0.00 60 1012.3
20260503012956 21 317 12.9 22.5 0.00 0.00 0.00 60 1012.4
20260503011636 21 322 11.3 22.5 0.00 0.00 0.00 59 1012.3
20260503011112 21 320 12.9 22.5 0.00 0.00 0.00 59 1012.3
20260503010201 21 322 11.3 20.9 0.00 0.00 0.00 58 1012.4
20260503005822 21 321 12.9 20.9 0.00 0.00 0.00 58 1012.4
20260503004545 21 331 11.3 20.9 0.00 0.00 0.00 58 1012.6
20260503003222 21 327 11.3 22.5 0.00 0.00 0.00 59 1012.6
20260503003041 21 327 11.3 22.5 0.00 0.00 0.00 59 1012.6